GW4912 Weather Reports


Display with metric or nautical units.
time (UTC)temp
F
wind
direction
speed
MPH
gust
MPH
rain 1hr
in
rain 24hr
in
rain mn
in
humidity
%
barometer
mb
20260503220404 60 355 8.0 13.0 0.00 0.00 0.00 43 1011.9
20260503215901 59 352 7.0 11.0 0.00 0.00 0.00 44 1011.8
20260503215358 59 349 6.0 11.0 0.00 0.00 0.00 43 1011.9
20260503214855 59 317 7.0 9.0 0.00 0.00 0.00 44 1011.9
20260503214353 61 349 11.0 15.0 0.00 0.00 0.00 41 1011.9
20260503213850 62 321 7.0 10.0 0.00 0.00 0.00 43 1011.8
20260503213348 61 12 6.0 8.0 0.00 0.00 0.00 44 1012.0
20260503212844 61 356 11.0 15.0 0.00 0.00 0.00 41 1011.9
20260503212342 61 318 5.0 13.0 0.00 0.00 0.00 41 1011.9
20260503211839 61 330 5.0 18.0 0.00 0.00 0.00 41 1012.1
20260503211336 60 350 6.0 14.0 0.00 0.00 0.00 43 1012.0
20260503210831 60 337 6.0 14.0 0.00 0.00 0.00 42 1012.1
20260503210329 59 1 11.0 18.0 0.00 0.00 0.00 42 1012.1
20260503205823 59 350 8.0 13.0 0.00 0.00 0.00 46 1012.1
20260503205320 59 57 6.0 11.0 0.00 0.00 0.00 45 1012.0
20260503204817 60 16 7.0 11.0 0.00 0.00 0.00 45 1011.9
20260503204315 60 22 9.0 13.0 0.00 0.00 0.00 45 1012.2
20260503203812 60 16 5.0 11.0 0.00 0.00 0.00 45 1012.1
20260503203309 60 12 10.0 15.0 0.00 0.00 0.00 45 1012.2
20260503202806 60 31 5.0 10.0 0.00 0.00 0.00 46 1012.2
20260503202304 59 15 6.0 17.0 0.00 0.00 0.00 44 1012.3
20260503201801 62 327 5.0 16.0 0.00 0.00 0.00 43 1012.4
20260503201258 62 359 7.0 11.0 0.00 0.00 0.00 42 1012.3
20260503200756 61 3 7.0 12.0 0.00 0.00 0.00 43 1012.3
20260503200251 60 2 5.0 13.0 0.00 0.00 0.00 43 1012.4
20260503195749 60 5 7.0 11.0 0.00 0.00 0.00 44 1012.5
20260503195245 61 7 9.0 15.0 0.00 0.00 0.00 42 1012.4
20260503194743 62 23 5.0 14.0 0.00 0.00 0.00 44 1012.7
20260503194238 63 14 9.0 15.0 0.00 0.00 0.00 43 1012.6
20260503193735 61 19 8.0 11.0 0.00 0.00 0.00 42 1012.7
20260503193231 62 4 5.0 11.0 0.00 0.00 0.00 42 1013.0
20260503192727 62 345 5.0 15.0 0.00 0.00 0.00 43 1013.0
20260503192222 61 24 8.0 16.0 0.00 0.00 0.00 42 1013.0
20260503191719 62 297 3.0 17.0 0.00 0.00 0.00 43 1013.0
20260503191216 60 12 7.0 9.0 0.00 0.00 0.00 42 1013.4
20260503190713 59 0 12.0 16.0 0.00 0.00 0.00 41 1013.3
20260503190210 61 10 5.0 10.0 0.00 0.00 0.00 43 1013.3
20260503185707 61 6 11.0 17.0 0.00 0.00 0.00 44 1013.5
20260503185202 60 19 10.0 14.0 0.00 0.00 0.00 46 1013.5
20260503184657 60 353 6.0 12.0 0.00 0.00 0.00 45 1013.4
20260503184154 60 354 9.0 12.0 0.00 0.00 0.00 44 1013.6
20260503183650 61 339 5.0 10.0 0.00 0.00 0.00 48 1013.7
20260503183148 62 1 9.0 13.0 0.00 0.00 0.00 43 1013.7
20260503182645 61 26 8.0 14.0 0.00 0.00 0.00 45 1013.7
20260503182144 60 341 5.0 15.0 0.00 0.00 0.00 46 1013.5
20260503181640 61 3 11.0 14.0 0.00 0.00 0.00 42 1013.7
20260503181137 60 26 8.0 10.0 0.00 0.00 0.00 44 1013.8
20260503180634 62 342 3.0 12.0 0.00 0.00 0.00 47 1014.0
20260503180132 60 346 4.0 14.0 0.00 0.00 0.00 46 1014.1
20260503175629 61 301 7.0 14.0 0.00 0.00 0.00 45 1014.0
20260503175126 61 17 7.0 14.0 0.00 0.00 0.00 42 1014.2
20260503174622 61 313 7.0 11.0 0.00 0.00 0.00 47 1014.1
20260503174120 61 349 11.0 12.0 0.00 0.00 0.00 47 1014.3
20260503173614 61 316 4.0 7.0 0.00 0.00 0.00 47 1014.1
20260503173111 60 0 11.0 13.0 0.00 0.00 0.00 47 1014.6
20260503172608 59 22 9.0 13.0 0.00 0.00 0.00 45 1014.4
20260503172106 61 326 5.0 6.0 0.00 0.00 0.00 50 1014.4
20260503171602 60 26 5.0 11.0 0.00 0.00 0.00 47 1014.6
20260503171059 59 346 4.0 14.0 0.00 0.00 0.00 47 1014.8
20260503170555 60 331 7.0 10.0 0.00 0.00 0.00 51 1014.6
20260503150948 55 348 2.0 10.0 0.00 0.00 0.00 54 1015.8
20260503150445 56 305 3.0 7.0 0.00 0.00 0.00 56 1015.9
20260503131337 48 42 6.0 9.0 0.00 0.00 0.00 60 1016.3
20260503130835 47 37 5.0 10.0 0.00 0.00 0.00 59 1016.5
20260503130333 46 327 2.0 9.0 0.00 0.00 0.00 60 1016.6
20260503110726 36 38 3.0 5.0 0.00 0.00 0.00 81 1016.5
20260503110223 36 25 4.0 6.0 0.00 0.00 0.00 81 1016.2
20260503100149 34 39 2.0 4.0 0.00 0.00 0.00 84 1015.8
20260503090109 35 32 3.0 3.0 0.00 0.00 0.00 84 1015.9
20260503081544 35 34 1.0 4.0 0.00 0.00 0.00 84 1016.0
20260503081042 35 39 1.0 3.0 0.00 0.00 0.00 84 1016.0
20260503080537 36 18 1.0 5.0 0.00 0.00 0.00 84 1016.3
20260503072512 36 35 3.0 4.0 0.00 0.00 0.00 86 1016.1
20260503072009 36 33 4.0 4.0 0.00 0.00 0.00 86 1016.0
20260503071506 36 33 1.0 4.0 0.00 0.00 0.00 86 1016.0
20260503071002 36 23 2.0 4.0 0.00 0.00 0.00 85 1016.2
20260503070459 36 51 2.0 5.0 0.00 0.00 0.00 86 1016.0
20260503054917 37 48 2.0 3.0 0.00 0.00 0.00 88 1016.4
20260503054413 37 33 2.0 3.0 0.00 0.00 0.00 88 1016.3
20260503053911 37 39 2.0 4.0 0.00 0.00 0.00 87 1016.6
20260503053409 37 64 1.0 4.0 0.00 0.00 0.00 87 1016.4
20260503052905 37 42 2.0 4.0 0.00 0.00 0.00 86 1016.3
20260503052402 38 56 2.0 3.0 0.00 0.00 0.00 86 1016.3
20260503051858 38 38 2.0 4.0 0.00 0.00 0.00 86 1016.4
20260503051354 38 54 4.0 4.0 0.00 0.00 0.00 86 1016.5
20260503050852 38 66 3.0 4.0 0.00 0.00 0.00 86 1016.2
20260503050348 38 3 2.0 4.0 0.00 0.00 0.00 86 1016.4
20260503045845 38 45 2.0 4.0 0.00 0.00 0.00 85 1016.3
20260503045343 38 42 2.0 3.0 0.00 0.00 0.00 85 1016.6
20260503044839 38 35 2.0 3.0 0.00 0.00 0.00 84 1016.7
20260503044336 38 63 2.0 4.0 0.00 0.00 0.00 84 1016.4
20260503043833 38 59 2.0 4.0 0.00 0.00 0.00 83 1016.7
20260503043330 38 53 3.0 4.0 0.00 0.00 0.00 83 1016.3
20260503042826 39 55 2.0 3.0 0.00 0.00 0.00 82 1016.5
20260503042323 39 55 2.0 3.0 0.00 0.00 0.00 81 1016.5
20260503041819 39 43 3.0 4.0 0.00 0.00 0.00 80 1016.5
20260503041317 40 55 3.0 5.0 0.00 0.00 0.00 79 1016.5
20260503040815 40 39 3.0 4.0 0.00 0.00 0.00 79 1016.5
20260503040312 40 37 3.0 5.0 0.00 0.00 0.00 78 1016.7
20260503035809 40 48 3.0 5.0 0.00 0.08 0.08 78 1016.7
20260503035306 41 47 2.0 6.0 0.00 0.08 0.08 77 1016.6
20260503034803 41 55 4.0 4.0 0.00 0.08 0.08 77 1016.7
20260503034300 41 35 5.0 6.0 0.00 0.08 0.08 76 1016.7
20260503033757 41 31 4.0 5.0 0.00 0.08 0.08 76 1016.6
20260503033255 42 56 4.0 6.0 0.00 0.08 0.08 75 1016.7
20260503032753 42 23 2.0 5.0 0.00 0.08 0.08 76 1016.6
20260503032251 42 47 2.0 7.0 0.00 0.08 0.08 76 1016.8
20260503031748 42 38 2.0 6.0 0.00 0.08 0.08 75 1016.8
20260503031246 42 37 4.0 4.0 0.00 0.08 0.08 75 1016.8
20260503030742 42 35 5.0 6.0 0.00 0.08 0.08 75 1016.9
20260503030239 42 22 5.0 7.0 0.00 0.08 0.08 74 1016.9
20260503025735 42 26 3.0 6.0 0.00 0.08 0.08 75 1016.8
20260503025233 42 50 4.0 5.0 0.00 0.08 0.08 75 1016.9
20260503024730 42 48 4.0 5.0 0.00 0.08 0.08 76 1016.8
20260503024227 42 18 1.0 5.0 0.00 0.08 0.08 75 1016.9
20260503023724 42 44 5.0 5.0 0.00 0.08 0.08 75 1017.1
20260503023220 42 31 3.0 5.0 0.00 0.08 0.08 76 1017.0
20260503022717 42 53 4.0 6.0 0.00 0.08 0.08 76 1017.2
20260503022216 42 50 3.0 4.0 0.00 0.08 0.08 76 1016.9
20260503021714 42 46 4.0 4.0 0.00 0.08 0.08 75 1016.9
20260503021210 42 57 4.0 5.0 0.00 0.08 0.08 75 1017.0
20260503020708 42 24 2.0 3.0 0.00 0.08 0.08 74 1017.1
20260503020205 42 15 2.0 3.0 0.00 0.08 0.08 73 1017.1
20260503015702 42 0 1.0 4.0 0.00 0.08 0.08 73 1017.0
20260503015159 42 19 2.0 4.0 0.00 0.08 0.08 73 1017.1
20260503014654 42 57 3.0 4.0 0.00 0.08 0.08 72 1017.1
20260503014152 42 65 3.0 4.0 0.00 0.08 0.08 73 1017.1
20260503013649 42 46 3.0 3.0 0.00 0.08 0.08 73 1016.8
20260503013147 42 48 2.0 4.0 0.00 0.08 0.08 73 1016.9
20260503012644 42 50 3.0 4.0 0.00 0.08 0.08 73 1016.9
20260503012141 42 42 2.0 3.0 0.00 0.08 0.08 73 1016.9
20260503011637 42 59 2.0 4.0 0.00 0.08 0.08 72 1017.0
20260503011134 42 58 3.0 3.0 0.00 0.08 0.08 72 1016.8
20260503010630 43 70 2.0 3.0 0.00 0.08 0.08 71 1016.6
20260503010128 43 57 2.0 4.0 0.00 0.08 0.08 71 1016.7
20260503005625 43 51 3.0 3.0 0.00 0.08 0.08 71 1016.8
20260503005122 43 48 3.0 3.0 0.00 0.08 0.08 70 1016.8
20260503004618 43 56 3.0 3.0 0.00 0.08 0.08 71 1016.7
20260503004117 43 44 3.0 4.0 0.00 0.08 0.08 70 1016.7
20260503003614 43 47 3.0 4.0 0.00 0.08 0.08 71 1016.6
20260503003110 43 42 3.0 4.0 0.00 0.08 0.08 70 1016.7
20260503002607 43 48 2.0 3.0 0.00 0.08 0.08 67 1016.6
20260503002104 43 38 1.0 2.0 0.00 0.08 0.08 67 1016.6
20260503001600 43 71 1.0 2.0 0.00 0.08 0.08 68 1016.7
20260503001058 43 54 2.0 2.0 0.00 0.08 0.08 69 1016.6
20260503000555 43 81 1.0 1.0 0.00 0.08 0.08 68 1016.7
20260503000052 43 80 1.0 2.0 0.00 0.08 0.08 67 1016.6
20260502235548 43 77 2.0 2.0 0.00 0.08 0.08 67 1016.5
20260502235046 44 74 0.0 2.0 0.00 0.08 0.08 67 1016.7
20260502234542 44 111 0.0 2.0 0.00 0.08 0.08 67 1016.7
20260502234040 44 60 0.0 2.0 0.00 0.08 0.08 66 1016.6
20260502233540 44 110 2.0 3.0 0.00 0.08 0.08 64 1016.7
20260502233037 44 69 0.0 2.0 0.00 0.08 0.08 65 1016.6
20260502232533 45 50 1.0 2.0 0.00 0.08 0.08 63 1016.6
20260502232031 45 54 2.0 2.0 0.00 0.08 0.08 65 1016.5
20260502231528 45 61 1.0 2.0 0.00 0.08 0.08 63 1016.7
20260502231026 45 347 1.0 2.0 0.00 0.08 0.08 61 1016.8
20260502230524 45 347 1.0 3.0 0.00 0.08 0.08 61 1016.6
20260502230022 46 83 2.0 2.0 0.00 0.08 0.08 61 1016.7
20260502225517 46 357 5.0 5.0 0.00 0.08 0.08 58 1016.7
20260502225014 46 357 5.0 5.0 0.00 0.08 0.08 58 1016.6
20260502224510 46 357 5.0 5.0 0.00 0.08 0.08 58 1016.8
20260502224008 46 357 5.0 5.0 0.00 0.08 0.08 58 1016.8
20260502223505 47 8 3.0 5.0 0.00 0.08 0.08 56 1016.9
20260502223004 48 35 2.0 5.0 0.00 0.08 0.08 53 1016.7
20260502222500 48 350 2.0 3.0 0.00 0.08 0.08 53 1016.7
20260502221956 49 169 2.0 3.0 0.00 0.08 0.08 56 1016.7
20260502221452 48 105 2.0 11.0 0.00 0.08 0.08 57 1016.7
20260502220950 47 21 2.0 4.0 0.00 0.08 0.08 57 1016.6
20260502220445 47 98 3.0 5.0 0.00 0.08 0.08 56 1016.7